Content
SEND FEEDBACK

Daily
Averages
Monthly
Summary
United Kingdom

GREENHAM, ENGLAND


Home > Europe > United Kingdom > England
Elevation: 410 feet     Latitude: 51 22N     Longitude: 001 16W

WEATHER
 
SELECT A DAY
Number of Records: 65,341;   Date Range: 8/10/96 - 12/16/14
 
SHARE

PRINT THIS DATA

[ ← Previous Day ]
WEATHER ALMANAC - NOVEMBER 16, 2013
[ Next Day → ]
[ °C ]   °F
Weather ElementAverageHighLow
Temperature40.2 °F48.2 °F (10:50 am)30.2 °F (1:50 am)
Dewpoint37.9 °F44 °F (6:00 pm)28.4 °F (3:50 am)
Humidity91.2 %100 % (1:50 am)71 % (12:00 pm)
Barometer30.45 in30.53 in (3:00 am)30.36 in (10:50 pm)
Wind Speed4.3 mph10.4 mph (11:50 am)
Weather ElementAverage
Visibility5.8 mi
Wind DirectionWSW (262.3 °)

Weather ElementTotal
Precipitation---
Heating Degree Days25.8 (Base 65)
Averaged from 31 records on November 16, 2013
WEATHER CONDITIONS BREAKOUT
WIND DIRECTION BREAKOUT
WEATHER BY HOUR - NOVEMBER 16, 2013
[ °C ]   °F
Local TimeTemperatureDewpointHumidityBarometerVisibilityWind DirectionWind SpeedGust SpeedPrecipitationEventsConditions
12:50 AM33.8 °F32.0 °F93 %30.51 inSW (230°)3.5 mphClear
1:50 AM30.2 °F30.2 °F100 %30.48 inWSW (240°)3.5 mphClear
2:50 AM32.0 °F32.0 °F100 %30.51 in6.2 miSSW (200°)3.5 mphFogShallow Fog
3:00 AM33.0 °F32.0 °F94 %30.53 in6.0 miSSW (200°)3.5 mphFogPatches of Fog
3:50 AM30.2 °F28.4 °F93 %30.48 in6.2 miSSW (200°)4.6 mphFogPatches of Fog
4:50 AM30.2 °F30.2 °F100 %30.48 in6.2 miWSW (250°)2.3 mphFogPatches of Fog
5:50 AM32.0 °F30.2 °F93 %30.48 in4.3 miSW (220°)3.5 mphFogPatches of Fog
6:00 AM31.0 °F31.0 °F97 %30.51 in0.0 miSW (220°)3.5 mphFogPatches of Fog
6:50 AM32.0 °F32.0 °F100 %30.48 in4.3 miSW (230°)3.5 mphFogPatches of Fog
7:50 AM32.0 °F32.0 °F100 %30.48 in4.3 miSSW (210°)2.3 mphFogPatches of Fog
8:50 AM35.6 °F35.6 °F100 %30.51 in4.3 miSSW (200°)3.5 mphFogShallow Fog
9:00 AM35.0 °F35.0 °F98 %30.53 in2.0 miSSW (200°)3.5 mphFogLight Fog
9:50 AM42.8 °F39.2 °F87 %30.48 inSSW (210°)3.5 mphClear
10:50 AM48.2 °F41.0 °F76 %30.48 inWSW (250°)4.6 mphClear
11:50 AM46.4 °F41.0 °F81 %30.45 in6.2 miWest (280°)10.4 mphPartly Cloudy
12:00 PM47.0 °F40.0 °F71 %30.48 in12.0 miWest (280°)10.4 mphPartly Cloudy
12:50 PM46.4 °F41.0 °F81 %30.45 in6.2 miWNW (300°)6.9 mphMostly Cloudy
1:50 PM44.6 °F41.0 °F87 %30.45 in6.2 miWNW (290°)6.9 mphOvercast
2:50 PM46.4 °F41.0 °F81 %30.42 in6.2 miWNW (290°)4.6 mphOvercast
3:00 PM46.0 °F41.0 °F76 %30.45 in19.0 miWNW (290°)4.6 mphOvercast
3:50 PM46.4 °F41.0 °F81 %30.42 in6.2 miNW (310°)3.5 mphOvercast
4:50 PM44.6 °F42.8 °F93 %30.42 in6.2 miNW (310°)3.5 mphOvercast
5:50 PM44.6 °F42.8 °F93 %30.42 in2.8 miWSW (250°)2.3 mphOvercast
6:00 PM44.0 °F44.0 °F97 %30.44 in3.0 miWSW (250°)2.3 mphMist
6:50 PM44.6 °F42.8 °F93 %30.42 in3.1 miWest (270°)3.5 mphLight Drizzle
7:50 PM44.6 °F42.8 °F93 %30.39 in3.1 miWNW (300°)3.5 mphOvercast
8:50 PM44.6 °F42.8 °F93 %30.39 in6.2 miNW (310°)4.6 mphOvercast
9:00 PM44.0 °F43.0 °F97 %30.42 in7.0 miNW (310°)4.6 mphPartly Cloudy
9:50 PM44.6 °F42.8 °F93 %30.39 in6.2 miNNW (340°)4.6 mphOvercast
10:50 PM44.6 °F42.8 °F93 %30.36 in6.2 miNorth (360°)3.5 mphOvercast
11:50 PM44.6 °F42.8 °F93 %30.36 in6.2 miNNW (330°)5.8 mphOvercast
Hourly data recorded from EGVO, located miles away from Greenham, England







STORIES FROM OUR PARTNERS